Regional Weather Roundup
Issued by NWS

Home | Current Version | Previous Version | Graphics & Text | Print | Product List | Glossary Off
Versions: 1 2 3 4 5 6 7 8 9 10 11 12 13 14 15 16 17 18 19 20 21 22 23 24 25 26 27 28 29 30 31 32 33 34 35 36 37 38 39 40 41 42 43 44 45 46 47 48 49 50

000
ASUS43 KMKX 080000
RWRWI

WISCONSIN REGIONAL WEATHER ROUNDUP
NATIONAL WEATHER SERVICE MILWAUKEE/SULLIVAN WI
700 PM CDT TUE JUL 07 2015

NOTE: "FAIR" INDICATES FEW OR NO CLOUDS BELOW 12,000 FEET WITH NO
SIGNIFICANT WEATHER AND/OR OBSTRUCTIONS TO VISIBILITY.

WIZ001-002-006>008-014>016-023>028-080100-
NORTHWEST WISCONSIN

CITY           SKY/WX    TMP DP  RH WIND       PRES   REMARKS
SUPERIOR ARPT  SUNNY     71  49  44 SW7       30.08S
ASHLAND        SUNNY     70  48  45 CALM      30.10S
6HR MIN TEMP:  66; 6HR MAX TEMP:  71;

HAYWARD        SUNNY     69  42  37 N3        30.12S
6HR MIN TEMP:  64; 6HR MAX TEMP:  70;

SIREN          SUNNY     69  42  37 CALM      30.12S
CUMBERLAND     SUNNY     66  43  42 NE7       30.12S
RICE LAKE      SUNNY     68  46  45 NW5       30.13S
CHETEK         SUNNY     68  47  46 NW6       30.11S
LADYSMITH      SUNNY     68  42  39 N7        30.13R
EAU CLAIRE     NOT AVBL
MENOMONIE      SUNNY     70  47  43 N8        30.10F
NEW RICHMOND   SUNNY     68  47  46 N3        30.12S
OSCEOLA        MOSUNNY   69  46  43 N7        30.14S
$$

WIZ003>005-009-010-017-018-080100-
NORTH CENTRAL WISCONSIN

CITY           SKY/WX    TMP DP  RH WIND       PRES   REMARKS
MANITOWISH WTR SUNNY     64  43  46 N7        30.12S
ARBOR VITAE    SUNNY     65  44  48 N7        30.11S
WOODRUFF       SUNNY     65  44  48 N7        30.11S
RHINELANDER    SUNNY     65  44  46 N5        30.11S
6HR MIN TEMP:  61; 6HR MAX TEMP:  68;

EAGLE RIVER    SUNNY     64  43  45 NE6       30.11R
LAND O LAKES   SUNNY     64  42  43 N7        30.12S
PHILLIPS       SUNNY     65  44  47 N8        30.11S
TOMAHAWK       SUNNY     65  46  48 N6        30.11S
MEDFORD        SUNNY     66  46  48 N7        30.10S
MERRILL        MOSUNNY   67  47  49 NE9       30.10S
$$

WIZ029-030-035-036-043>047-080100-
CENTRAL WISCONSIN

CITY           SKY/WX    TMP DP  RH WIND       PRES   REMARKS
WAUSAU         PTSUNNY   69  45  41 N8        30.08S
6HR MIN TEMP:  65; 6HR MAX TEMP:  71;

MOSINEE        MOSUNNY   66  46  48 N6        30.10S
MARSHFIELD     PTSUNNY   69  46  43 N9        30.09S
6HR MIN TEMP:  64; 6HR MAX TEMP:  72;

STEVENS POINT  MOSUNNY   66  46  48 NE8       30.09S
WAUPACA        MOSUNNY   72  47  41 N6        30.08S
WAUTOMA        NOT AVBL
WISC RAPIDS    MOSUNNY   69  45  41 N10       30.09S
6HR MIN TEMP:  64; 6HR MAX TEMP:  72;

CAMP DOUGLAS   NOT AVBL
$$

WIZ011>013-019>022-031-037>040-048>050-080100-
NORTHEAST WISCONSIN

CITY           SKY/WX    TMP DP  RH WIND       PRES   REMARKS
ANTIGO         SUNNY     65  47  53 N6        30.10S
SHAWANO        MOSUNNY   70  48  45 NE10      30.08S
OCONTO         MOSUNNY   68  49  50 N6        30.06S
STURGEON BAY   SUNNY     64  48  55 N7        30.09S
6HR MIN TEMP:  61; 6HR MAX TEMP:  66;

GREEN BAY      MOSUNNY   69  49  48 N8        30.08R
6HR MIN TEMP:  66; 6HR MAX TEMP:  72;

MANITOWOC      NOT AVBL
APPLETON       MOSUNNY   66  46  48 N12       30.08S
CLINTONVILLE   MOSUNNY   70  45  40 NE9       30.07S
OSHKOSH        MOSUNNY   68  47  46 N12       30.07R
6HR MIN TEMP:  66; 6HR MAX TEMP:  71;

$$

WIZ032>034-041-042-053>061-080100-
SOUTHWEST WISCONSIN

CITY           SKY/WX    TMP DP  RH WIND       PRES   REMARKS
LA CROSSE      SUNNY     70  49  47 N8        30.08F
6HR MIN TEMP:  65; 6HR MAX TEMP:  72;

SPARTA         MOSUNNY   70  46  41 N6        30.09S
VIROQUA        MOSUNNY   65  49  58 NE7       30.10S
BOSCOBEL       CLOUDY    69  50  50 E6        30.10R
6HR MIN TEMP:  67; 6HR MAX TEMP:  72;

PRAIRIE DU CHI PTSUNNY   66  47  49 N3        30.09S
PLATTEVILLE    MOSUNNY   66  52  59 N6        30.09S
$$

WIZ056-057-062-063-064-067-068-080100-
SOUTH CENTRAL WISCONSIN

CITY           SKY/WX    TMP DP  RH WIND       PRES   REMARKS
REEDSBURG      CLOUDY    68  50  52 NE3       30.08S
BARABOO/DELLS  SUNNY     68  46  45 NE6       30.08S
LONE ROCK      NOT AVBL
MINERAL POINT  MOSUNNY   68  48  49 N3        30.09S
MADISON        PTSUNNY   66  50  56 NE6       30.08R
6HR MIN TEMP:  66; 6HR MAX TEMP:  71;

MIDDLETON      CLOUDY    67  48  50 NE6       30.09R
WATERTOWN      PTSUNNY   66  49  55 NE6       30.07S
MONROE         MOSUNNY   64  52  63 N6        30.08R
JANESVILLE     MOSUNNY   70  48  46 N8        30.07R
$$

WIZ051-052-058>065-066-070>072-080100-
SOUTHEAST WISCONSIN

CITY           SKY/WX    TMP DP  RH WIND       PRES   REMARKS
MILWAUKEE      MOSUNNY   60  48  64 NE10      30.09R
6HR MIN TEMP:  60; 6HR MAX TEMP:  66;

WAUKESHA       MOSUNNY   61  48  63 NE9       30.10R
MILWAUKEE/TIMM PTSUNNY   61  45  55 E8        30.10R
RACINE         SUNNY     60  48  64 NE10      30.10R
6HR MIN TEMP:  60; 6HR MAX TEMP:  67;

BURLINGTON     SUNNY     63  51  64 E9        30.08R
KENOSHA        SUNNY     62  49  62 NE8       30.08S
6HR MIN TEMP:  62; 6HR MAX TEMP:  68;

FOND DU LAC    SUNNY     68  49  50 NE9       30.07S
6HR MIN TEMP:  66; 6HR MAX TEMP:  70;

SHEBOYGAN      SUNNY     61  49  64 NE7       30.09R
6HR MIN TEMP:  60; 6HR MAX TEMP:  68;

WEST BEND      CLOUDY    61  46  59 E12       30.08S
JUNEAU         PTSUNNY   66  49  54 NE3       30.08S
$$

LSZ147-162-080100-
LAKE SUPERIOR

STATION/POSITION TIME  TEMP    WIND        PRES    WAVE
                       AIR SEA DIR/SP/G            HT/PER
                 (UTC) (F)     (DEG/KT/KT) (MB)    (FT/S)
W MID LAKE BUOY  2250   46 39  200/  8/ 10 1019.1F   0
DEVILS ISLAND    2300   66     180/  6/  8 1019.0F
PORT WING        2340   71     260/  4/  9 1018.6F
SAXON HARBOR     2340   70        CALM     1019.0F
$$

LMZ867-665-643>646-080100-
LAKE MICHIGAN

STATION/POSITION TIME  TEMP    WIND        PRES    WAVE
                       AIR SEA DIR/SP/G            HT/PER
                 (UTC) (F)     (DEG/KT/KT) (MB)    (FT/S)
CHAMBERS ISLAND  2300   65      30/ 13/ 15 1017.6F
S GREEN BAY BUOY 2300   66 68   60/  8/ 12 1019.1F
N MID LAKE BUOY  2250   56 52  350/  6/  8 1017.7R   2/ 4
NORTHPORT PIER   2300   62     360/ 12/ 15 1017.6S
ALGOMA LAKESHORE 2311          100/  6/  7   N/A
KEWAUNEE LAKESHO 2300   58     150/  2/  5 1017.7R
SHEBOYGAN LAKESH 2300   57      CALM  /  1 1018.9R
PORT WASHINGTON  2300   61      40/  6/  9 1019.3R
ATWATER BUOY     2300   59 59   20/ 10/ 14 1019.7R
MILWAUKEE LAKESH 2300   58      30/ 11/ 13   N/A
KENOSHA   LAKESH 2300   58      20/  8/ 10 1018.3S
$$

TC  - TEMPERATURE IN CELSIUS
VSB - VISIBILITY IN STATUTE MILES
WCI - WIND CHILL INDEX
HX  - HEAT INDEX



USA.gov is the U.S. government's official web portal to all federal, state and local government web resources and services.